This is the latest recevied weather packets stored in our database for station/object KM4CNW. If no packets are shown the sender has not sent any weather packets the latest 10 day(s).
| Time | Temp. | Humidity | Pressure | Rain* | Wind** | Luminosity | Snow |
|---|---|---|---|---|---|---|---|
| 1777414298 | 17.78° C | 74% | 1011.7 hPa | 0 mm | - | 98 W/m² | - |
| 1777413993 | 17.78° C | 75% | 1011.5 hPa | 0 mm | - | 97 W/m² | - |
| 1777413688 | 17.78° C | 75% | 1011.8 hPa | 0 mm | - | 90 W/m² | - |
| 1777413384 | 17.78° C | 74% | 1011.6 hPa | 0 mm | - | 124 W/m² | - |
| 1777413081 | 17.78° C | 74% | 1011.5 hPa | 0 mm | - | 88 W/m² | - |
| 1777412775 | 17.22° C | 75% | 1011.6 hPa | 0 mm | - | 102 W/m² | - |
| 1777412475 | 17.22° C | 74% | 1011.8 hPa | 0 mm | - | 90 W/m² | - |
| 1777412172 | 17.78° C | 75% | 1011.8 hPa | 0 mm | - | 95 W/m² | - |
| 1777411869 | 17.78° C | 74% | 1012.3 hPa | 0 mm | - | 64 W/m² | - |
| 1777411567 | 17.78° C | 74% | 1012 hPa | 0 mm | - | 77 W/m² | - |
| 1777411262 | 17.78° C | 73% | 1012.2 hPa | 0 mm | - | 82 W/m² | - |
| 1777410957 | 17.78° C | 74% | 1012.1 hPa | 0 mm | - | 113 W/m² | - |
| 1777410656 | 17.78° C | 74% | 1011.8 hPa | 0 mm | - | 144 W/m² | - |
| 1777410351 | 17.78° C | 73% | 1011.8 hPa | 0 mm | - | 130 W/m² | - |
| 1777410046 | 17.78° C | 73% | 1011.8 hPa | 0 mm | - | 128 W/m² | - |
| 1777409745 | 17.78° C | 74% | 1012 hPa | 0 mm | - | 101 W/m² | - |
| 1777409442 | 17.78° C | 74% | 1012.1 hPa | 0 mm | - | 113 W/m² | - |
| 1777409138 | 17.78° C | 72% | 1011.8 hPa | 0 mm | - | 74 W/m² | - |
| 1777408834 | 17.78° C | 74% | 1011.8 hPa | 0 mm | - | 120 W/m² | - |
| 1777408531 | 17.78° C | 74% | 1012 hPa | 0 mm | - | 231 W/m² | - |
| 1777408230 | 17.78° C | 73% | 1011.9 hPa | 0 mm | - | 181 W/m² | - |
| 1777407926 | 17.78° C | 73% | 1012.2 hPa | 0 mm | - | 126 W/m² | - |
| 1777407624 | 17.78° C | 73% | 1012.3 hPa | 0 mm | - | 123 W/m² | - |
| 1777407323 | 17.78° C | 74% | 1012.6 hPa | 0 mm | - | 165 W/m² | - |
| 1777407024 | 17.78° C | 72% | 1012.5 hPa | 0 mm | - | 123 W/m² | - |
* Rain latest hour (hover to see other rain measurements)
** Current wind speed in m/s (hover to see current wind gust speed)